Time,TemperatureF,DewpointF,PressureIn,WindDirection,WindDirectionDegrees,WindSpeedMPH,WindSpeedGustMPH,Humidity,HourlyPrecipIn,Conditions,Clouds,dailyrainin,SoftwareType,DateUTC
2013-02-13 00:03:00,24.7,20.0,29.87,West,269,1.0,3.0,83,0.00,,,0.00,weatherlink.com 1.10,2013-02-13 05:03:00,
2013-02-13 00:18:00,24.7,20.0,29.87,West,281,1.0,3.0,83,0.00,,,0.00,weatherlink.com 1.10,2013-02-13 05:18:00,
2013-02-13 00:33:00,24.7,20.0,29.87,WSW,241,1.0,3.0,83,0.00,,,0.00,weatherlink.com 1.10,2013-02-13 05:33:00,
2013-02-13 00:48:00,24.5,20.0,29.87,WSW,241,0.0,1.0,84,0.00,,,0.00,weatherlink.com 1.10,2013-02-13 05:48:00,
2013-02-13 01:03:00,24.3,20.0,29.87,WSW,240,1.0,2.0,85,0.00,,,0.00,weatherlink.com 1.10,2013-02-13 06:03:00,
2013-02-13 01:18:00,24.3,20.0,29.86,WSW,240,0.0,0.0,85,0.00,,,0.00,weatherlink.com 1.10,2013-02-13 06:18:00,
2013-02-13 01:33:00,24.2,20.0,29.86,WSW,240,0.0,0.0,85,0.00,,,0.00,weatherlink.com 1.10,2013-02-13 06:33:00,
2013-02-13 01:48:00,24.1,21.0,29.85,WSW,240,0.0,1.0,86,0.00,,,0.00,weatherlink.com 1.10,2013-02-13 06:48:00,
2013-02-13 02:03:00,24.0,21.0,29.85,SSW,192,2.0,2.0,87,0.00,,,0.00,weatherlink.com 1.10,2013-02-13 07:03:00,
2013-02-13 02:18:00,24.0,21.0,29.84,SSE,154,3.0,3.0,87,0.00,,,0.00,weatherlink.com 1.10,2013-02-13 07:18:00,
2013-02-13 02:33:00,24.0,21.0,29.84,SSE,165,1.0,3.0,87,0.00,,,0.00,weatherlink.com 1.10,2013-02-13 07:33:00,
2013-02-13 02:48:00,24.1,21.0,29.84,SSE,149,0.0,2.0,87,0.00,,,0.00,weatherlink.com 1.10,2013-02-13 07:48:00,
2013-02-13 03:03:00,24.1,21.0,29.83,SSE,156,2.0,3.0,87,0.00,,,0.00,weatherlink.com 1.10,2013-02-13 08:03:00,
2013-02-13 03:18:00,24.1,21.0,29.82,SSE,156,1.0,3.0,87,0.00,,,0.00,weatherlink.com 1.10,2013-02-13 08:18:00,
2013-02-13 03:33:00,24.1,21.0,29.82,SSE,155,1.0,2.0,87,0.00,,,0.00,weatherlink.com 1.10,2013-02-13 08:33:00,
2013-02-13 03:48:00,24.5,22.0,29.81,South,188,3.0,3.0,88,0.00,,,0.00,weatherlink.com 1.10,2013-02-13 08:48:00,
2013-02-13 04:04:00,25.7,23.0,29.81,SSW,202,2.0,7.0,88,0.00,,,0.00,weatherlink.com 1.10,2013-02-13 09:04:00,
2013-02-13 04:19:00,26.2,23.0,29.80,SSE,149,2.0,7.0,86,0.00,,,0.00,weatherlink.com 1.10,2013-02-13 09:19:00,
2013-02-13 04:34:00,26.6,23.0,29.81,SSW,192,1.0,6.0,86,0.00,,,0.00,weatherlink.com 1.10,2013-02-13 09:34:00,
2013-02-13 04:49:00,26.9,23.0,29.80,WSW,247,2.0,7.0,86,0.00,,,0.00,weatherlink.com 1.10,2013-02-13 09:49:00,
2013-02-13 05:04:00,27.1,23.0,29.80,SSW,192,1.0,6.0,85,0.00,,,0.00,weatherlink.com 1.10,2013-02-13 10:04:00,
2013-02-13 05:19:00,27.1,24.0,29.80,SSE,157,2.0,6.0,86,0.00,,,0.00,weatherlink.com 1.10,2013-02-13 10:19:00,
2013-02-13 05:34:00,27.2,24.0,29.80,SSW,194,2.0,4.0,86,0.00,,,0.00,weatherlink.com 1.10,2013-02-13 10:34:00,
2013-02-13 05:49:00,27.4,24.0,29.79,South,171,1.0,6.0,86,0.00,,,0.00,weatherlink.com 1.10,2013-02-13 10:49:00,
2013-02-13 06:04:00,27.7,24.0,29.79,SSW,193,4.0,8.0,86,0.00,,,0.00,weatherlink.com 1.10,2013-02-13 11:04:00,
2013-02-13 06:19:00,28.0,24.0,29.79,SSW,207,10.0,12.0,86,0.00,,,0.00,weatherlink.com 1.10,2013-02-13 11:19:00,
2013-02-13 06:34:00,28.0,24.0,29.78,South,181,6.0,7.0,86,0.00,,,0.00,weatherlink.com 1.10,2013-02-13 11:34:00,
2013-02-13 06:49:00,28.1,25.0,29.77,South,170,4.0,5.0,87,0.00,,,0.00,weatherlink.com 1.10,2013-02-13 11:49:00,
2013-02-13 07:04:00,28.3,25.0,29.77,SSW,202,5.0,8.0,87,0.00,,,0.00,weatherlink.com 1.10,2013-02-13 12:04:00,
2013-02-13 07:19:00,28.5,25.0,29.77,SSW,208,7.0,13.0,86,0.00,,,0.00,weatherlink.com 1.10,2013-02-13 12:19:00,
2013-02-13 07:34:00,28.7,25.0,29.77,South,186,2.0,11.0,86,0.00,,,0.00,weatherlink.com 1.10,2013-02-13 12:34:00,
2013-02-13 07:49:00,28.7,25.0,29.76,South,182,3.0,9.0,86,0.00,,,0.00,weatherlink.com 1.10,2013-02-13 12:49:00,
2013-02-13 08:04:00,28.9,25.0,29.76,South,178,2.0,9.0,86,0.00,,,0.00,weatherlink.com 1.10,2013-02-13 13:04:00,
2013-02-13 08:19:00,29.3,26.0,29.76,South,182,4.0,10.0,86,0.00,,,0.00,weatherlink.com 1.10,2013-02-13 13:19:00,
2013-02-13 08:34:00,29.4,26.0,29.76,South,176,4.0,10.0,85,0.00,,,0.00,weatherlink.com 1.10,2013-02-13 13:34:00,
2013-02-13 08:49:00,29.7,26.0,29.75,SW,214,6.0,12.0,85,0.00,,,0.00,weatherlink.com 1.10,2013-02-13 13:49:00,
2013-02-13 09:04:00,29.9,26.0,29.75,SSE,161,2.0,12.0,84,0.00,,,0.00,weatherlink.com 1.10,2013-02-13 14:04:00,
2013-02-13 09:19:00,30.0,26.0,29.74,South,187,6.0,13.0,84,0.00,,,0.00,weatherlink.com 1.10,2013-02-13 14:19:00,
2013-02-13 09:34:00,30.2,26.0,29.74,SSW,200,8.0,10.0,84,0.00,,,0.00,weatherlink.com 1.10,2013-02-13 14:34:00,
2013-02-13 09:49:00,30.6,26.0,29.74,SSE,153,5.0,10.0,83,0.00,,,0.00,weatherlink.com 1.10,2013-02-13 14:49:00,
2013-02-13 10:04:00,30.7,26.0,29.74,SSW,213,7.0,13.0,83,0.00,,,0.00,weatherlink.com 1.10,2013-02-13 15:04:00,
2013-02-13 10:19:00,30.9,26.0,29.73,SW,234,11.0,14.0,83,0.00,,,0.00,weatherlink.com 1.10,2013-02-13 15:19:00,
2013-02-13 10:34:00,30.9,26.0,29.73,SSW,208,3.0,17.0,83,0.00,,,0.00,weatherlink.com 1.10,2013-02-13 15:34:00,
2013-02-13 10:49:00,31.2,26.0,29.73,SSE,161,6.0,17.0,82,0.00,,,0.00,weatherlink.com 1.10,2013-02-13 15:49:00,
2013-02-13 11:04:00,31.2,26.0,29.73,SSW,212,6.0,14.0,82,0.00,,,0.00,weatherlink.com 1.10,2013-02-13 16:04:00,
2013-02-13 11:19:00,31.8,27.0,29.73,SSW,208,5.0,16.0,82,0.00,,,0.00,weatherlink.com 1.10,2013-02-13 16:19:00,
2013-02-13 11:34:00,31.6,27.0,29.73,SSE,165,3.0,12.0,82,0.00,,,0.00,weatherlink.com 1.10,2013-02-13 16:34:00,
2013-02-13 11:49:00,31.6,27.0,29.72,WSW,243,8.0,17.0,83,0.00,,,0.00,weatherlink.com 1.10,2013-02-13 16:49:00,
2013-02-13 12:04:00,32.0,27.0,29.72,SSW,200,3.0,12.0,83,0.00,,,0.00,weatherlink.com 1.10,2013-02-13 17:04:00,
2013-02-13 12:19:00,32.5,28.0,29.71,SW,223,6.0,14.0,82,0.00,,,0.00,weatherlink.com 1.10,2013-02-13 17:19:00,
2013-02-13 12:34:00,32.8,28.0,29.71,SW,223,4.0,14.0,81,0.00,,,0.00,weatherlink.com 1.10,2013-02-13 17:34:00,
2013-02-13 12:49:00,33.1,28.0,29.71,West,267,1.0,14.0,81,0.00,,,0.00,weatherlink.com 1.10,2013-02-13 17:49:00,
2013-02-13 13:04:00,33.0,28.0,29.71,SW,220,1.0,10.0,81,0.00,,,0.00,weatherlink.com 1.10,2013-02-13 18:04:00,
2013-02-13 13:19:00,33.1,28.0,29.70,SSW,194,3.0,10.0,82,0.00,,,0.00,weatherlink.com 1.10,2013-02-13 18:19:00,
2013-02-13 13:34:00,33.3,28.0,29.70,SW,217,5.0,14.0,82,0.00,,,0.00,weatherlink.com 1.10,2013-02-13 18:34:00,
2013-02-13 13:49:00,33.5,29.0,29.70,WSW,244,7.0,11.0,82,0.00,,,0.00,weatherlink.com 1.10,2013-02-13 18:49:00,
2013-02-13 14:04:00,33.6,29.0,29.70,SW,236,6.0,10.0,82,0.00,,,0.00,weatherlink.com 1.10,2013-02-13 19:04:00,
2013-02-13 14:19:00,33.6,29.0,29.70,WSW,255,2.0,11.0,83,0.00,,,0.00,weatherlink.com 1.10,2013-02-13 19:19:00,
2013-02-13 14:35:00,33.8,29.0,29.69,SW,232,2.0,11.0,83,0.00,,,0.00,weatherlink.com 1.10,2013-02-13 19:35:00,
2013-02-13 14:50:00,33.9,29.0,29.70,SW,223,3.0,10.0,83,0.00,,,0.00,weatherlink.com 1.10,2013-02-13 19:50:00,
2013-02-13 15:05:00,33.8,29.0,29.70,SSW,212,4.0,9.0,83,0.00,,,0.00,weatherlink.com 1.10,2013-02-13 20:05:00,
2013-02-13 15:20:00,33.6,29.0,29.71,SW,225,7.0,9.0,84,0.00,,,0.00,weatherlink.com 1.10,2013-02-13 20:20:00,
2013-02-13 15:35:00,33.5,30.0,29.70,SSW,199,6.0,7.0,85,0.00,,,0.00,weatherlink.com 1.10,2013-02-13 20:35:00,
2013-02-13 15:50:00,33.9,30.0,29.70,SSW,208,8.0,9.0,84,0.00,,,0.00,weatherlink.com 1.10,2013-02-13 20:50:00,
2013-02-13 16:05:00,34.3,30.0,29.70,SSW,202,7.0,9.0,83,0.00,,,0.00,weatherlink.com 1.10,2013-02-13 21:05:00,
2013-02-13 16:20:00,34.7,30.0,29.71,SSE,167,3.0,7.0,82,0.00,,,0.00,weatherlink.com 1.10,2013-02-13 21:20:00,
2013-02-13 16:35:00,34.4,30.0,29.70,SSW,203,6.0,7.0,83,0.00,,,0.00,weatherlink.com 1.10,2013-02-13 21:35:00,
2013-02-13 16:50:00,34.4,30.0,29.71,SSE,151,2.0,7.0,83,0.00,,,0.00,weatherlink.com 1.10,2013-02-13 21:50:00,
2013-02-13 17:05:00,34.3,30.0,29.71,SSW,209,2.0,4.0,83,0.00,,,0.00,weatherlink.com 1.10,2013-02-13 22:05:00,
2013-02-13 17:20:00,34.1,30.0,29.71,SW,215,3.0,7.0,83,0.00,,,0.00,weatherlink.com 1.10,2013-02-13 22:20:00,
2013-02-13 17:35:00,33.6,29.0,29.71,SSW,200,3.0,7.0,84,0.00,,,0.00,weatherlink.com 1.10,2013-02-13 22:35:00,
2013-02-13 17:50:00,33.0,29.0,29.71,SW,219,3.0,5.0,85,0.00,,,0.00,weatherlink.com 1.10,2013-02-13 22:50:00,
2013-02-13 18:05:00,32.3,29.0,29.71,SW,223,2.0,4.0,86,0.00,,,0.00,weatherlink.com 1.10,2013-02-13 23:05:00,
2013-02-13 18:20:00,31.4,28.0,29.71,SSW,208,3.0,5.0,88,0.00,,,0.00,weatherlink.com 1.10,2013-02-13 23:20:00,
2013-02-13 18:35:00,30.9,28.0,29.72,SW,228,1.0,5.0,89,0.00,,,0.00,weatherlink.com 1.10,2013-02-13 23:35:00,
2013-02-13 18:50:00,30.4,28.0,29.72,SSW,192,3.0,4.0,89,0.00,,,0.00,weatherlink.com 1.10,2013-02-13 23:50:00,
2013-02-13 19:05:00,30.3,28.0,29.72,SSW,198,2.0,3.0,90,0.00,,,0.00,weatherlink.com 1.10,2013-02-14 00:05:00,
2013-02-13 19:20:00,29.6,27.0,29.73,SSW,198,1.0,3.0,90,0.00,,,0.00,weatherlink.com 1.10,2013-02-14 00:20:00,
2013-02-13 19:35:00,28.5,26.0,29.73,SSW,198,0.0,2.0,91,0.00,,,0.00,weatherlink.com 1.10,2013-02-14 00:35:00,
2013-02-13 20:05:00,27.1,25.0,29.73,South,172,1.0,2.0,93,0.00,,,0.00,weatherlink.com 1.10,2013-02-14 01:05:00,
2013-02-13 20:20:00,27.0,25.0,29.73,West,267,3.0,3.0,93,0.00,,,0.00,weatherlink.com 1.10,2013-02-14 01:20:00,
2013-02-13 20:35:00,27.0,26.0,29.74,South,184,0.0,3.0,94,0.00,,,0.00,weatherlink.com 1.10,2013-02-14 01:35:00,
2013-02-13 20:50:00,26.4,25.0,29.74,South,169,1.0,3.0,93,0.00,,,0.00,weatherlink.com 1.10,2013-02-14 01:50:00,
2013-02-13 21:05:00,26.2,25.0,29.74,South,178,1.0,3.0,93,0.00,,,0.00,weatherlink.com 1.10,2013-02-14 02:05:00,
2013-02-13 21:20:00,25.2,24.0,29.74,South,181,2.0,4.0,93,0.00,,,0.00,weatherlink.com 1.10,2013-02-14 02:20:00,
2013-02-13 21:35:00,24.6,23.0,29.74,South,183,2.0,4.0,93,0.00,,,0.00,weatherlink.com 1.10,2013-02-14 02:35:00,
2013-02-13 21:51:00,23.6,22.0,29.74,South,183,2.0,3.0,93,0.00,,,0.00,weatherlink.com 1.10,2013-02-14 02:51:00,
2013-02-13 22:06:00,23.2,22.0,29.74,South,183,2.0,3.0,93,0.00,,,0.00,weatherlink.com 1.10,2013-02-14 03:06:00,
2013-02-13 22:21:00,22.8,21.0,29.73,South,175,1.0,2.0,94,0.00,,,0.00,weatherlink.com 1.10,2013-02-14 03:21:00,
2013-02-13 22:36:00,22.6,21.0,29.73,South,178,1.0,3.0,94,0.00,,,0.00,weatherlink.com 1.10,2013-02-14 03:36:00,
2013-02-13 22:51:00,23.0,22.0,29.73,South,187,3.0,4.0,94,0.00,,,0.00,weatherlink.com 1.10,2013-02-14 03:51:00,
2013-02-13 23:06:00,23.0,22.0,29.73,South,188,3.0,4.0,94,0.00,,,0.00,weatherlink.com 1.10,2013-02-14 04:06:00,
2013-02-13 23:21:00,21.9,20.0,29.73,South,180,2.0,3.0,93,0.00,,,0.00,weatherlink.com 1.10,2013-02-14 04:21:00,
2013-02-13 23:36:00,22.1,21.0,29.73,South,182,1.0,3.0,94,0.00,,,0.00,weatherlink.com 1.10,2013-02-14 04:36:00,